When you browse on this site, cookies collect data to enhance your experience and personalize the content and advertising you see.
Visit our Privacy Policy to learn more. By continuing to use the site, you agree to this use of cookies and data.
  • In Czech Republic
  • List of Countries
  • For 7 days
  • Water Temperature
  • Satellite Maps
  • Weather Map
  • Weather Widgets
  • user-avatar
    Login

    Hourly Weather Lipsha

    Today, 18 February, Monday

    Time Temperature Precipitation Wind Pressure Humidity
    00:00 -5°C° 0 mm 3 mps 726 mmHg 93%
    01:00 -5°C° 0.1 mm 3 mps 726 mmHg 93%
    02:00 -4°C° 0.1 mm 3 mps 727 mmHg 93%
    03:00 -2°C° 0 mm 3 mps 727 mmHg 93%
    04:00 -3°C° 0.3 mm 4 mps 727 mmHg 91%
    05:00 -4°C° 0.3 mm 5 mps 727 mmHg 89%
    06:00 -4°C° 0.3 mm 6 mps 728 mmHg 87%
    07:00 -4°C° 0.3 mm 7 mps 728 mmHg 85%
    08:00 -6°C° 0.3 mm 7 mps 729 mmHg 84%
    09:00 -6°C° 0 mm 8 mps 730 mmHg 82%
    10:00 -7°C° 0.2 mm 8 mps 731 mmHg 81%
    11:00 -7°C° 0.2 mm 8 mps 732 mmHg 79%
    12:00 -7°C° 0.2 mm 8 mps 733 mmHg 78%
    13:00 -8°C° 0.1 mm 8 mps 734 mmHg 77%
    14:00 -8°C° 0.1 mm 8 mps 736 mmHg 75%
    15:00 -10°C° 0.1 mm 8 mps 737 mmHg 73%
    16:00 -11°C° 0 mm 8 mps 738 mmHg 74%
    17:00 -12°C° 0 mm 8 mps 739 mmHg 74%
    18:00 -13°C° 0 mm 8 mps 741 mmHg 74%
    19:00 -14°C° 0 mm 7 mps 742 mmHg 74%
    20:00 -14°C° 0 mm 7 mps 742 mmHg 74%
    21:00 -15°C° 0 mm 7 mps 743 mmHg 74%
    22:00 -17°C° 0 mm 7 mps 744 mmHg 75%
    23:00 -17°C° 0 mm 6 mps 745 mmHg 76%

    Tomorrow, 19 February, Tuesday

    Time Temperature Precipitation Wind Pressure Humidity
    00:00 -17°C° 0 mm 6 mps 745 mmHg 76%
    01:00 -18°C° 0 mm 5 mps 746 mmHg 76%
    02:00 -18°C° 0 mm 5 mps 747 mmHg 75%
    03:00 -18°C° 0 mm 5 mps 747 mmHg 75%
    04:00 -18°C° 0 mm 5 mps 748 mmHg 78%
    05:00 -18°C° 0 mm 4 mps 748 mmHg 81%
    06:00 -18°C° 0 mm 4 mps 749 mmHg 84%
    07:00 -17°C° 0 mm 3 mps 749 mmHg 85%
    08:00 -16°C° 0 mm 3 mps 749 mmHg 87%
    09:00 -16°C° 0 mm 3 mps 750 mmHg 89%
    10:00 -14°C° 0 mm 2 mps 749 mmHg 85%
    11:00 -12°C° 0 mm 2 mps 749 mmHg 81%
    12:00 -10°C° 0 mm 2 mps 749 mmHg 77%
    13:00 -10°C° 0 mm 2 mps 748 mmHg 78%
    14:00 -12°C° 0 mm 3 mps 748 mmHg 79%
    15:00 -10°C° 0 mm 3 mps 747 mmHg 80%
    16:00 -11°C° 0.1 mm 4 mps 746 mmHg 82%
    17:00 -11°C° 0.1 mm 4 mps 746 mmHg 83%
    18:00 -12°C° 0.1 mm 4 mps 745 mmHg 85%
    19:00 -11°C° 0.1 mm 4 mps 745 mmHg 87%
    20:00 -9°C° 0.1 mm 3 mps 745 mmHg 88%
    21:00 -8°C° 0.1 mm 3 mps 745 mmHg 90%
    22:00 -8°C° 0 mm 3 mps 744 mmHg 91%
    23:00 -8°C° 0 mm 3 mps 744 mmHg 92%

    Day after tomorrow, 20 February, Wednesday

    Time Temperature Precipitation Wind Pressure Humidity
    00:00 -7°C° 0 mm 2 mps 744 mmHg 93%
    01:00 -8°C° 0 mm 3 mps 744 mmHg 93%
    02:00 -9°C° 0 mm 3 mps 744 mmHg 93%
    03:00 -9°C° 0 mm 3 mps 744 mmHg 94%
    04:00 -9°C° 0 mm 3 mps 743 mmHg 93%
    05:00 -9°C° 0 mm 3 mps 743 mmHg 93%
    06:00 -9°C° 0 mm 3 mps 743 mmHg 93%
    07:00 -9°C° 0 mm 3 mps 742 mmHg 93%
    08:00 -10°C° 0 mm 4 mps 742 mmHg 92%
    09:00 -11°C° 0 mm 4 mps 742 mmHg 92%
    10:00 -10°C° 0 mm 4 mps 741 mmHg 90%
    11:00 -9°C° 0 mm 4 mps 741 mmHg 89%
    12:00 -9°C° 0 mm 4 mps 741 mmHg 88%
    13:00 -8°C° 0 mm 5 mps 740 mmHg 87%
    14:00 -7°C° 0 mm 5 mps 740 mmHg 85%
    15:00 -6°C° 0 mm 5 mps 740 mmHg 84%
    16:00 -6°C° 0 mm 5 mps 740 mmHg 85%
    17:00 -6°C° 0 mm 5 mps 739 mmHg 86%
    18:00 -6°C° 0 mm 5 mps 739 mmHg 87%
    19:00 -6°C° 0.2 mm 5 mps 739 mmHg 88%
    20:00 -6°C° 0.2 mm 5 mps 738 mmHg 89%
    21:00 -5°C° 0.2 mm 5 mps 738 mmHg 90%
    22:00 -5°C° 0.3 mm 5 mps 738 mmHg 91%
    23:00 -5°C° 0.3 mm 5 mps 738 mmHg 91%

    21 February, Thursday

    Time Temperature Precipitation Wind Pressure Humidity
    00:00 -4°C° 0.3 mm 4 mps 737 mmHg 92%
    01:00 -4°C° 0.2 mm 4 mps 737 mmHg 92%
    02:00 -3°C° 0.2 mm 4 mps 737 mmHg 92%
    03:00 -3°C° 0.2 mm 4 mps 737 mmHg 91%
    04:00 -3°C° 0.1 mm 4 mps 736 mmHg 91%
    05:00 -3°C° 0.1 mm 4 mps 736 mmHg 91%
    06:00 -3°C° 0.1 mm 4 mps 736 mmHg 92%
    07:00 -2°C° 0.1 mm 4 mps 736 mmHg 91%
    08:00 -2°C° 0.1 mm 4 mps 736 mmHg 91%
    09:00 -2°C° 0.1 mm 4 mps 736 mmHg 90%
    10:00 -2°C° 0.1 mm 4 mps 736 mmHg 90%
    11:00 -1°C° 0.1 mm 4 mps 736 mmHg 90%
    12:00 -1°C° 0.1 mm 5 mps 736 mmHg 89%
    13:00 -1°C° 0.2 mm 5 mps 735 mmHg 90%
    14:00 -1°C° 0.2 mm 5 mps 735 mmHg 90%
    15:00 -1°C° 0.2 mm 5 mps 735 mmHg 90%
    16:00 -2°C° 0.2 mm 4 mps 735 mmHg 91%
    17:00 -2°C° 0.2 mm 4 mps 734 mmHg 91%
    18:00 -1°C° 0.2 mm 3 mps 734 mmHg 92%
    19:00 -2°C° 0 mm 3 mps 734 mmHg 93%
    20:00 -2°C° 0 mm 2 mps 734 mmHg 94%
    21:00 -2°C° 0 mm 2 mps 733 mmHg 96%
    22:00 -1°C° 0 mm 1 mps 733 mmHg 96%
    23:00 -2°C° 0 mm 1 mps 733 mmHg 97%

    22 February, Friday

    Time Temperature Precipitation Wind Pressure Humidity
    00:00 -3°C° 0 mm 0 mps 733 mmHg 97%
    01:00 -2°C° 0 mm 1 mps 733 mmHg 97%
    02:00 -4°C° 0 mm 2 mps 734 mmHg 96%
    03:00 -5°C° 0 mm 3 mps 734 mmHg 96%
    04:00 -8°C° 0.1 mm 4 mps 735 mmHg 93%
    05:00 -10°C° 0.1 mm 5 mps 735 mmHg 91%
    06:00 -12°C° 0.1 mm 6 mps 736 mmHg 88%
    07:00 -14°C° 0.1 mm 6 mps 737 mmHg 87%
    08:00 -15°C° 0.1 mm 6 mps 737 mmHg 86%
    09:00 -15°C° 0.1 mm 6 mps 738 mmHg 86%
    10:00 -15°C° 0.1 mm 6 mps 739 mmHg 85%
    11:00 -15°C° 0.1 mm 6 mps 740 mmHg 84%
    12:00 -16°C° 0.1 mm 6 mps 741 mmHg 83%
    13:00 -16°C° 0.1 mm 6 mps 742 mmHg 82%
    14:00 -16°C° 0.1 mm 6 mps 743 mmHg 82%
    15:00 -16°C° 0.1 mm 6 mps 743 mmHg 82%
    16:00 -17°C° 0.1 mm 6 mps 744 mmHg 83%
    17:00 -17°C° 0.1 mm 5 mps 745 mmHg 84%
    18:00 -18°C° 0.1 mm 5 mps 746 mmHg 85%
    19:00 -18°C° 0.1 mm 5 mps 746 mmHg 85%
    20:00 -18°C° 0.1 mm 5 mps 747 mmHg 85%
    21:00 -17°C° 0.1 mm 4 mps 747 mmHg 85%
    22:00 -17°C° 0 mm 4 mps 748 mmHg 85%
    23:00 -17°C° 0 mm 4 mps 748 mmHg 86%

    23 February, Saturday

    Time Temperature Precipitation Wind Pressure Humidity
    00:00 -17°C° 0 mm 4 mps 749 mmHg 87%
    01:00 -17°C° 0 mm 4 mps 749 mmHg 87%
    02:00 -17°C° 0 mm 4 mps 750 mmHg 87%
    03:00 -18°C° 0 mm 4 mps 750 mmHg 87%
    04:00 -18°C° 0 mm 4 mps 751 mmHg 87%
    05:00 -19°C° 0 mm 4 mps 751 mmHg 88%
    06:00 -20°C° 0 mm 4 mps 751 mmHg 88%
    07:00 -20°C° 0 mm 4 mps 752 mmHg 87%
    08:00 -20°C° 0 mm 4 mps 752 mmHg 87%
    09:00 -19°C° 0 mm 3 mps 752 mmHg 86%
    10:00 -18°C° 0 mm 3 mps 753 mmHg 85%
    11:00 -18°C° 0 mm 3 mps 753 mmHg 84%
    12:00 -17°C° 0 mm 3 mps 753 mmHg 83%
    13:00 -17°C° 0 mm 3 mps 753 mmHg 83%
    14:00 -17°C° 0 mm 3 mps 753 mmHg 83%
    15:00 -15°C° 0 mm 2 mps 753 mmHg 83%
    16:00 -16°C° 0 mm 2 mps 754 mmHg 86%
    17:00 -17°C° 0 mm 2 mps 754 mmHg 89%
    18:00 -16°C° 0 mm 1 mps 754 mmHg 93%
    19:00 -16°C° 0 mm 1 mps 755 mmHg 94%
    20:00 -17°C° 0 mm 1 mps 755 mmHg 94%
    21:00 -17°C° 0 mm 1 mps 755 mmHg 95%
    22:00 -18°C° 0 mm 1 mps 755 mmHg 96%
    23:00 -18°C° 0 mm 1 mps 755 mmHg 96%
    Show more